This demonstration page uses our WeatherBlox Daily Observations layout. Learn more.

36.17497, -115.13722

Hourly Observations for June 29, 2015

Temp ( °F °C ) Dew Point ( °F °C ) Humidity (%) Winds ( mph kmh ) Pressure ( in mb ) Visibility ( mi km ) Precip ( " mm )
12:53 am 00:53 Clear 97 36.1 46 7.8 17 17 W 7 11 29.82 1010 10 16.0934 0 0
1:53 am 01:53 Clear 94 34.4 46 7.8 19 19 NNW 6 9 29.82 1010 10 16.0934 0 0
2:53 am 02:53 Clear 92 33.3 45 7.2 20 20 NNW 5 7 29.83 1010 10 16.0934 0 0
3:53 am 03:53 Clear 91 32.8 46 7.8 21 21 NW 5 7 29.83 1010 10 16.0934 0 0
4:53 am 04:53 Clear 90 32.2 46 7.8 22 22 N 7 11 29.84 1011 10 16.0934 0 0
5:53 am 05:53 Partly Cloudy with Light Rain 89 31.7 48 8.9 24 24 Calm 29.88 1012 10 16.0934 0 0.0254
6:53 am 06:53 Mostly Sunny 90 32.2 50 10 25 25 NW 13 20 29.88 1012 10 16.0934 0 0.0254
7:53 am 07:53 Sunny 93 33.9 52 11.1 25 25 N 5 7 29.89 1012 10 16.0934 0 0
8:53 am 08:53 Sunny 97 36.1 51 10.6 21 21 Calm 29.89 1012 10 16.0934 0 0
9:53 am 09:53 Sunny 99 37.2 49 9.4 18 18 Calm 29.89 1012 10 16.0934 0 0
10:53 am 10:53 Sunny 101 38.3 49 9.4 17 17 E 5 7 29.89 1012 10 16.0934 0 0
11:53 am 11:53 Sunny 103 39.4 48 8.9 16 16 undefined N/A 29.87 1012 10 16.0934 0 0
12:53 pm 12:53 Sunny 106 41.1 48 8.9 14 14 S 8 13 29.85 1011 10 16.0934 0 0
1:53 pm 13:53 Sunny 105 40.6 48 8.9 15 15 VRB 5 7 29.83 1010 10 16.0934 0 0
2:53 pm 14:53 Sunny 108 42.2 48 8.9 13 13 ESE 10 17 29.8 1009 10 16.0934 0 0
3:53 pm 15:53 Sunny 107 41.7 47 8.3 13 13 undefined N/A 29.77 1008 10 16.0934 0 0
4:53 pm 16:53 Sunny 108 42.2 46 7.8 12 12 SSW 10 17 29.75 1007 10 16.0934 0 0
5:53 pm 17:53 Sunny 108 42.2 46 7.8 12 12 S 7 11 29.75 1008 10 16.0934 0 0
6:53 pm 18:53 Sunny 107 41.7 46 7.8 13 13 SSE 6 9 29.75 1008 10 16.0934 0 0
7:51 pm 19:51 Sunny 106 41 46 8 13 13 SW 17 28 29.59 1002 10 16.0934 0 0
7:53 pm 19:53 Sunny 105 40.6 46 7.8 14 14 SW 16 26 29.76 1008 10 16.0934 0 0
8:53 pm 20:53 Clear 102 38.9 48 8.9 16 16 WNW 3 6 29.76 1008 10 16.0934 0 0
9:53 pm 21:53 Clear 100 37.8 49 9.4 18 18 SE 5 7 29.8 1009 10 16.0934 0 0
10:53 pm 22:53 Clear 100 37.8 50 10 18 18 SE 7 11 29.8 1009 10 16.0934 0 0
11:53 pm 23:53 Clear 97 36.1 50 10 20 20 E 6 9 29.81 1010 10 16.0934 0 0

Powered by AerisWeather